Location: Madrid
(40.4000°N, 3.6830°W)
Time: 13:53:24
(UTC+01:00)

ISS - Pass Details

Date: 07 December 2017
Orbit: 402 x 406 km, 51.6° (Epoch: 16 December)

Event Time Altitude Azimuth Distance (km) Brightness Sun altitude
Rises 18:23:09 0° 294° (WNW) 2,329 0.7 -6.8°
Reaches altitude 10° 18:26:14 10° 326° (NW) 1,469 -0.9 -7.3°
Maximum altitude 18:27:44 12° 353° (N) 1,328 -1.4 -7.6°
Drops below altitude 10° 18:29:13 10° 20° (NNE) 1,469 -1.4 -7.8°
Enters shadow 18:30:12 - 34° (NNE) 1,685 -1.2 -8.0°
